Regional Weather Roundup
Issued by NWS

Home | Current Version | Previous Version | Text Only | Print | Product List | Glossary Off
Versions: 1 2 3 4 5 6 7 8 9 10 11 12 13 14 15 16 17 18 19 20 21 22 23 24 25 26 27 28 29 30 31 32 33 34 35 36 37 38 39 40 41 42 43 44 45 46 47 48 49 50

000
ASUS45 KBOU 012107
RWRCO

WEATHER ROUNDUP FOR COLORADO
NATIONAL WEATHER SERVICE DENVER/BOULDER CO
300 PM MDT MON SEP 01 2014

NOTE: "FAIR" INDICATES FEW OR NO CLOUDS BELOW 12000 FEET WITH NO
SIGNIFICANT WEATHER AND/OR OBSTRUCTIONS TO VISIBILITY.

COZ001>005-013-030-031-012200-
...NORTHWEST COLORADO...

CITY           SKY/WX    TMP DP  RH WIND       PRES   REMARKS
CRAIG          SUNNY     75  34  22 W18G28    30.11F
HAYDEN         SUNNY     72  30  21 NW16G23   30.12F
MEEKER         SUNNY     76  32  20 W17G28    30.13F
MOUNT WERNER   NOT AVBL
STEAMBOAT SPGS MOSUNNY   69  35  28 W15G24    30.14F
WALDEN         MOSUNNY   63  28  27 W24G32    30.19F
$$

COZ006>008-011-012200-
...WEST CENTRAL VALLEYS...

CITY           SKY/WX    TMP DP  RH WIND       PRES   REMARKS
GRAND JUNCTION SUNNY     82  37  20 NW8       30.02F
MONTROSE       SUNNY     83  36  18 N10       30.08F
EAGLE          MOSUNNY   75  34  22 W21G32    30.13F
RIFLE          SUNNY     81  33  17 W24       30.05F
DELTA          SUNNY     88  32  13 S7        30.04F
NUCLA          NOT AVBL
$$

COZ017>023-064>068-012200-
...SOUTHWEST COLORADO...

CITY           SKY/WX    TMP DP  RH WIND       PRES   REMARKS
DURANGO        SUNNY     83  27  13 W15G31    30.13F
CORTEZ         SUNNY     86  29  12 W14G24    30.11F
PAGOSA SPRINGS SUNNY     80  19  10 SW15G23   30.19F
TELLURIDE      NOT AVBL
WOLF CREEK PAS SUNNY     55  32  41 SW25G35   30.49F
$$

COZ009-010-012-014-032>034-037-058>063-012200-
...CENTRAL COLORADO...

CITY           SKY/WX    TMP DP  RH WIND       PRES   REMARKS
ASPEN          MOSUNNY   72  36  26 N10G20    30.19F
BUENA VISTA    SUNNY     77  22  13 SW21G35   30.15F
COPPER MTN     MOSUNNY   54  27  35 W31G44    30.45F
BERTHOUD PASS  FAIR      43  41  93 W29G37    30.45R
COTTONWOOD PAS SUNNY     68  19  15 W17G38    30.29F
GUNNISON       SUNNY     73  30  20 SW18G26   30.20F
KREMMLING      SUNNY     72  23  16 NW15G23   30.16F
LEADVILLE      SUNNY     63  31  30 NW12G24   30.31F
MONARCH PASS   SUNNY     54  27  35 W37G56    30.55F
SALIDA         SUNNY     80  25  13 W21G33    30.19F
SUNLIGHT       SUNNY     63  39  42 CALM      30.41F
WILKERSON PASS NOT AVBL
$$

COZ069>075-012200-
...SAN LUIS VALLEY/SANGRE DE CRISTO MOUNTAINS...

CITY           SKY/WX    TMP DP  RH WIND       PRES   REMARKS
ALAMOSA        MOSUNNY   83  29  14 W12G21    30.12F
LA VETA PASS   NOT AVBL
SAGUACHE       NOT AVBL
$$

COZ035-036-038>040-012200-
...NORTHERN COLORADO FRONT RANGE...

CITY           SKY/WX    TMP DP  RH WIND       PRES   REMARKS
DENVER INTL AP MOSUNNY   78  39  24 CALM      30.00F
DMNS CITY PARK   N/A     79  39  23 E3        29.98F
AURORA         MOSUNNY   77  38  25 S2        30.02F
FRONT RANGE AP NOT AVBL
ERIE MUNI ARPT MOSUNNY   79  37  22 N7        29.97F
BOULDER MUN AP MOSUNNY   82  32  16 SW12      29.96F
CENTENNIAL     MOSUNNY   78  36  21 VRB3      30.02F
BROOMFIELD     MOSUNNY   79  41  25 SE6       30.01F
FORT COLLINS   SUNNY     79  46  31 E9        29.97F
LONGMONT       SUNNY     80  40  24 NE8       29.97F
$$

COZ041-046-047-076>085-087-088-012200-
...PIKES PEAK/PALMER DIVIDE AND SOUTHERN FOOTHILLS...

CITY           SKY/WX    TMP DP  RH WIND       PRES   REMARKS
COLO. SPRINGS  MOSUNNY   75  45  34 SE13G20   30.05F
A. F. ACADEMY  MOSUNNY   71  45  38 CALM      30.07F
ELLICOTT       SUNNY     76  45  33 S12       30.05F
FALCON         PTSUNNY   71  46  40 SE8       30.12F
FORT CARSON    SUNNY     81  47  30 SE16      30.00F
LIMON          SUNNY     76  42  29 S8        30.03F
MONUMENT HILL  MOSUNNY   68  45  42 E7        30.11F
TRINIDAD       SUNNY     88  40  18 E10G18    29.98F
$$

COZ042>045-048>051-090-091-012200-
...NORTHEAST COLORADO...

CITY           SKY/WX    TMP DP  RH WIND       PRES   REMARKS
GREELEY ARPT   SUNNY     77  41  27 SE3       29.98F
AKRON          SUNNY     77  39  25 MISG      29.99F
BURLINGTON     SUNNY     80  43  26 E3        29.98F
WRAY             N/A     79  47  32 SE7       29.96F
STERLING       SUNNY     81  52  36 W7        29.94F
HOLYOKE        MOSUNNY   79  52  38 CALM      29.96F
FORT MORGAN    SUNNY     79  40  25 NW3       29.98F
$$

COZ086-089-092>099-012200-
...SOUTHEAST COLORADO...

CITY           SKY/WX    TMP DP  RH WIND       PRES   REMARKS
PUEBLO         SUNNY     86  44  23 S13G23    29.93F
LA JUNTA       SUNNY     85  44  23 S10       29.93F
LAMAR          SUNNY     85  45  24 VRB3      29.91F
SPRINGFIELD      N/A     82  47  29 MISG      29.97F
$$



USA.gov is the U.S. government's official web portal to all federal, state and local government web resources and services.